Location: Sawmill Trailhead
(33.5800°N, 116.4497°W)
Time: 05:12:18
(UTC-07:00)

Amateur Radio Satellites - All Passes

Search period start: 28 August 2016 04:42
Search period end: 29 August 2016 04:42
Location: Sawmill Trailhead, 33.5800°N, 116.4497°W

Satellite Date Start Highest point End Downlink Frequencies (MHz)
Time Altitude Azimuth
ITAMSAT 1 28 Aug 04:43:23 04:47:37 26° 291° (WNW) 04:51:51 435.822/435.867
HORYU 2 28 Aug 05:12:02 05:15:51 28° 98° (E) 05:19:39 437.375
RS-15 28 Aug 05:12:27 05:18:20 14° 341° (NNW) 05:24:20 29.354- 29.394
Cosmos 2491 28 Aug 05:19:44 05:28:29 61° 81° (E) 05:37:10 435.465 / 435.565
CUBESAT XI-V 28 Aug 05:24:21 05:28:56 79° 259° (WSW) 05:33:34 437.345
PHONESAT 2.4 28 Aug 05:37:39 05:40:24 33° 16° (NNE) 05:43:10 2401.200-2431.200
BRITE-PL 28 Aug 05:44:12 05:49:14 32° 95° (E) 05:54:05 437.365/2234.400
AO-7 28 Aug 05:46:27 05:53:47 37° 297° (WNW) 06:01:06 29.400- 29.500
NOAA 15 28 Aug 05:47:48 05:51:10 17° 94° (E) 05:54:32 137.62
CUTE-I 28 Aug 05:49:07 05:51:23 13° 92° (E) 05:53:38 437.470
AO-85 28 Aug 05:51:00 05:55:58 39° 303° (WNW) 06:00:44 145.980
Cosmos 2504 28 Aug 06:23:24 06:29:59 26° 85° (E) 06:36:17 435.465 / 435.565
YUBILEINY 28 Aug 06:27:43 06:36:33 83° 94° (E) 06:45:25 435.215
NOAA 18 28 Aug 06:31:31 06:36:21 32° 98° (E) 06:41:09 137.9125
HORYU 2 28 Aug 06:48:56 06:52:12 21° 291° (WNW) 06:55:27 437.375
LilacSat-2 28 Aug 06:52:00 06:55:45 67° 100° (E) 06:59:29 437.200
GOMX 1 28 Aug 06:55:25 07:00:48 71° 101° (ESE) 07:05:49 467.674
STRAND 1 28 Aug 06:57:11 07:02:05 49° 73° (ENE) 07:07:00 437.568
ISS 28 Aug 06:57:48 06:59:23 13° 126° (SE) 07:00:59 145.825
DOVE 4 28 Aug 06:59:50 07:04:14 31° 96° (E) 07:08:23 437.250
PHONESAT 2.4 28 Aug 07:13:57 07:16:48 42° 211° (SSW) 07:19:38 2401.200-2431.200
Cubesat XI-IV 28 Aug 07:14:46 07:20:06 83° 284° (WNW) 07:25:25 437.490
Cosmos 2491 28 Aug 07:17:59 07:24:32 24° 277° (W) 07:31:07 435.465 / 435.565
HO-68 28 Aug 07:18:49 07:22:38 15° 92° (E) 07:26:27 435.675
BRITE-PL 28 Aug 07:22:39 07:27:31 30° 290° (WNW) 07:32:17 437.365/2234.400
NOAA 15 28 Aug 07:26:02 07:31:09 48° 287° (WNW) 07:36:13 137.62
CUTE-I 28 Aug 07:26:32 07:31:46 62° 286° (WNW) 07:37:00 437.470
RS-15 28 Aug 07:32:25 07:38:48 15° 21° (NNE) 07:45:12 29.354- 29.394
CINEMA 3 28 Aug 07:37:09 07:40:10 18° 93° (E) 07:43:06 145.822/145.860
SEEDS 28 Aug 07:49:49 07:51:30 12° 93° (E) 07:53:12 437.485
PRISM 28 Aug 08:03:31 08:06:40 22° 70° (ENE) 08:09:50 437.425
CANX-2 28 Aug 08:10:36 08:14:36 39° 98° (E) 08:18:35 2200.000
NOAA 18 28 Aug 08:12:17 08:16:51 28° 292° (WNW) 08:21:24 137.9125
Cosmos 2504 28 Aug 08:14:33 08:22:52 55° 279° (W) 08:30:41 435.465 / 435.565
CUTE 1.7 + AOD 2 28 Aug 08:16:35 08:20:34 40° 98° (E) 08:24:34 437.475
AAUSAT CUBESAT 2 28 Aug 08:18:40 08:20:54 14° 94° (E) 08:23:08 437.432
COMPASS 1 28 Aug 08:26:22 08:29:44 23° 96° (E) 08:33:05 437.405
YUBILEINY 28 Aug 08:28:53 08:34:17 17° 292° (WNW) 08:39:44 435.215
AIST 1 28 Aug 08:29:58 08:33:12 21° 88° (E) 08:36:28
ISS 28 Aug 08:32:24 08:35:33 43° 320° (NW) 08:38:42 145.825
GOMX 1 28 Aug 08:35:57 08:38:05 12° 297° (WNW) 08:40:11 467.674
DOVE 4 28 Aug 08:37:51 08:41:40 23° 292° (WNW) 08:45:20 437.250
STRAND 1 28 Aug 08:38:31 08:41:27 15° 266° (W) 08:44:25 437.568
SO-50 28 Aug 08:47:57 08:52:30 74° 60° (ENE) 08:56:57 436.795
CUSAT 1 28 Aug 08:55:27 08:58:52 14° 71° (ENE) 09:02:27 437.405
BEESAT 2 28 Aug 08:59:28 09:02:23 20° 110° (ESE) 09:05:20 435.950
HO-68 28 Aug 09:03:46 09:10:57 79° 286° (WNW) 09:18:04 435.675
Oscar 11 28 Aug 09:06:02 09:09:13 20° 95° (E) 09:12:24 145.826/435.025
UNISAT 6 28 Aug 09:06:10 09:07:44 12° 66° (ENE) 09:09:17 437.425
CINEMA 3 28 Aug 09:13:27 09:17:21 30° 289° (WNW) 09:21:06 145.822/145.860
FUNcube-1 28 Aug 09:14:17 09:17:31 22° 96° (E) 09:20:44 145.935
BEESAT 3 28 Aug 09:15:07 09:18:59 72° 116° (ESE) 09:22:54 437.485
UWE-3 28 Aug 09:22:31 09:26:35 51° 99° (E) 09:30:36 435.000/436.395/437.385
SEEDS 28 Aug 09:23:23 09:27:22 42° 285° (WNW) 09:31:20 437.485
CUBEBUG 2 28 Aug 09:26:16 09:30:29 86° 282° (WNW) 09:34:37 437.445
JUGNU 28 Aug 09:35:09 09:37:32 12° 165° (SSE) 09:39:55 437.505
ZACube-1 28 Aug 09:35:34 09:39:32 44° 99° (E) 09:43:29 437.345
PRISM 28 Aug 09:38:36 09:41:50 22° 264° (W) 09:45:05 437.425
ANTELSAT 28 Aug 09:40:27 09:44:23 29° 72° (ENE) 09:48:16 437.575/2403.000
RS-15 28 Aug 09:44:07 09:55:51 45° 51° (NE) 10:07:17 29.354- 29.394
CANX-2 28 Aug 09:47:51 09:50:04 14° 292° (WNW) 09:52:17 2200.000
DELFI C3 28 Aug 09:50:41 09:54:03 25° 97° (E) 09:57:24 145.870
AAUSAT CUBESAT 2 28 Aug 09:52:38 09:56:27 35° 287° (WNW) 10:00:16 437.432
CUTE 1.7 + AOD 2 28 Aug 09:53:51 09:56:02 14° 292° (WNW) 09:58:13 437.475
DANDE 28 Aug 09:57:36 10:01:17 16° 76° (ENE) 10:05:25 436.750
COMPASS 1 28 Aug 10:01:54 10:05:09 22° 289° (WNW) 10:08:23 437.405
AIST 1 28 Aug 10:07:04 10:10:36 24° 283° (WNW) 10:14:11
TIGRISAT 28 Aug 10:10:29 10:15:02 60° 75° (ENE) 10:19:31 435.000
HUMSAT D 28 Aug 10:16:06 10:19:24 23° 96° (E) 10:22:42 437.325/437.525
CUSAT 1 28 Aug 10:34:25 10:41:16 87° 84° (E) 10:49:13 437.405
BEESAT 2 28 Aug 10:36:42 10:40:02 26° 305° (NW) 10:43:23 435.950
UNISAT 6 28 Aug 10:39:22 10:43:56 58° 260° (W) 10:48:25 437.425
Oscar 11 28 Aug 10:41:38 10:45:18 27° 288° (WNW) 10:48:56 145.826/435.025
GONETS M04 28 Aug 10:45:55 10:52:17 23° 82° (E) 10:58:40
FUNcube-1 28 Aug 10:50:26 10:53:39 22° 289° (WNW) 10:56:52 145.935
HO-68 28 Aug 10:54:55 10:57:29 12° 304° (WNW) 11:00:03 435.675
UWE-3 28 Aug 11:02:05 11:02:32 10° 294° (WNW) 11:02:58 435.000/436.395/437.385
QB50P1 28 Aug 11:03:55 11:07:43 32° 72° (ENE) 11:11:31 145.935-145.965
ESTCUBE 1 28 Aug 11:09:24 11:12:03 15° 94° (E) 11:14:41 437.505/2401.250
POPSAT HIP 1 28 Aug 11:13:45 11:17:46 41° 74° (ENE) 11:21:48 437.405
ZACube-1 28 Aug 11:13:56 11:15:24 12° 293° (WNW) 11:16:50 437.345
AIST 2 28 Aug 11:16:48 11:20:09 25° 111° (ESE) 11:23:32 435.215
ANTELSAT 28 Aug 11:17:28 11:21:02 22° 264° (W) 11:24:33 437.575/2403.000
Cosmos 2499 28 Aug 11:18:19 11:25:06 29° 87° (E) 11:31:28 435.465 / 435.565
JUGNU 28 Aug 11:21:40 11:25:52 20° 174° (S) 11:30:03 437.505
DELFI C3 28 Aug 11:25:52 11:28:41 19° 290° (WNW) 11:31:30 145.870
DANDE 28 Aug 11:38:10 11:44:00 69° 264° (W) 11:51:27 436.750
DUCHIFAT 1 28 Aug 11:40:14 11:44:29 80° 77° (ENE) 11:48:45 145.980
PCSat 28 Aug 11:41:34 11:46:58 84° 297° (WNW) 11:52:25 145.827
QB50P2 28 Aug 11:44:05 11:48:21 74° 259° (W) 11:52:37 145.880/145.840
POLYITAN 1 28 Aug 11:46:35 11:50:52 73° 259° (WSW) 11:55:09 437.675
AUBIESAT-1 28 Aug 11:51:14 11:55:05 52° 104° (ESE) 11:58:37 437.475
HUMSAT D 28 Aug 11:51:48 11:54:52 21° 289° (WNW) 11:57:56 437.325/437.525
TIGRISAT 28 Aug 11:51:51 11:51:59 10° 268° (W) 11:52:06 435.000
NANOSAT C BR1 28 Aug 11:54:30 11:58:43 62° 259° (W) 12:02:57 145.865
JAS-2 28 Aug 11:55:30 12:00:32 54° 73° (ENE) 12:05:49 435.910
RS-15 28 Aug 11:56:45 12:08:27 52° 251° (WSW) 12:19:51 29.354- 29.394
M-CUBED/EXP-1 PRIME 28 Aug 11:57:34 12:01:36 84° 110° (ESE) 12:05:16 437.505
CUBEBUG 1 28 Aug 12:00:28 12:04:36 37° 99° (E) 12:08:40 437.445
VELOX 1 28 Aug 12:00:41 12:04:35 30° 97° (E) 12:08:28 145.980
50 SAT 28 Aug 12:01:42 12:04:53 28° 98° (E) 12:08:05 437.505
SPROUT 28 Aug 12:14:53 12:18:06 21° 95° (E) 12:21:17 437.525
DX 1 28 Aug 12:15:16 12:19:03 28° 97° (E) 12:22:48 434.975-435.025
CUSAT 1 28 Aug 12:19:04 12:22:44 15° 273° (W) 12:26:38 437.405
BUGSAT 1 28 Aug 12:32:03 12:36:14 59° 259° (W) 12:40:26 437.445
GONETS M04 28 Aug 12:39:40 12:48:17 63° 279° (W) 12:57:01
QB50P1 28 Aug 12:40:44 12:43:30 17° 266° (W) 12:46:17 145.935-145.965
O/OREOS (USA 219) 28 Aug 12:41:27 12:44:16 17° 100° (E) 12:47:05 437.305
Gurwin Techsat 1B 28 Aug 12:42:26 12:44:34 12° 63° (ENE) 12:46:44 435.225
ESTCUBE 1 28 Aug 12:44:44 12:48:58 40° 287° (WNW) 12:53:12 437.505/2401.250
AISAT 28 Aug 12:49:21 12:53:46 66° 284° (WNW) 12:58:09 437.250
POPSAT HIP 1 28 Aug 12:51:42 12:53:41 13° 267° (W) 12:55:39 437.405
UKube-1 28 Aug 12:53:41 12:58:00 64° 101° (ESE) 13:02:16 .
AIST 2 28 Aug 12:55:14 12:58:32 23° 306° (NW) 13:01:52 435.215
SRMSAT 28 Aug 13:00:33 13:04:19 17° 170° (S) 13:08:04 437.500
Oscar 19 28 Aug 13:01:21 13:06:13 44° 72° (ENE) 13:11:08 437.125/150
JUGNU 28 Aug 13:09:58 13:14:14 20° 185° (S) 13:18:29 437.505
Cosmos 2499 28 Aug 13:10:00 13:17:51 47° 281° (W) 13:25:11 435.465 / 435.565
PCSat 28 Aug 13:29:38 13:31:09 11° 313° (NW) 13:32:40 145.827
50 SAT 28 Aug 13:36:17 13:38:10 14° 291° (WNW) 13:40:04 437.505
VELOX 1 28 Aug 13:37:33 13:40:49 20° 291° (WNW) 13:44:04 145.980
CUBEBUG 1 28 Aug 13:37:49 13:40:31 16° 292° (WNW) 13:43:11 437.445
JAS-2 28 Aug 13:43:43 13:46:05 13° 269° (W) 13:48:30 435.910
SPROUT 28 Aug 13:50:25 13:53:58 26° 289° (WNW) 13:57:29 437.525
DX 1 28 Aug 13:51:47 13:55:02 21° 291° (WNW) 13:58:15 434.975-435.025
SWISSCUBE 28 Aug 14:04:35 14:07:18 15° 94° (E) 14:09:59 437.505
TISAT 1 28 Aug 14:05:34 14:09:46 89° 90° (E) 14:13:57 437.305
ITAMSAT 1 28 Aug 14:17:53 14:22:26 32° 70° (ENE) 14:26:58 435.822/435.867
Gurwin Techsat 1B 28 Aug 14:18:34 14:23:51 70° 258° (WSW) 14:29:10 435.225
O/OREOS (USA 219) 28 Aug 14:19:13 14:23:19 35° 294° (WNW) 14:27:28 437.305
BEESAT 28 Aug 14:20:53 14:24:26 21° 96° (E) 14:27:58 436.000
AO-85 28 Aug 14:26:52 14:30:59 61° 59° (ENE) 14:34:51 145.980
Oscar 19 28 Aug 14:42:20 14:45:41 17° 266° (W) 14:49:05 437.125/150
AO-7 28 Aug 14:47:59 14:55:42 43° 65° (ENE) 15:03:24 29.400- 29.500
SRMSAT 28 Aug 14:48:30 14:52:50 21° 180° (S) 14:57:09 437.500
JUGNU 28 Aug 14:59:44 15:02:34 14° 194° (SSW) 15:05:22 437.505
ISS 28 Aug 15:03:23 15:06:19 29° 37° (NE) 15:09:14 145.825
ITUPSAT 1 28 Aug 15:07:58 15:12:44 69° 102° (ESE) 15:17:29 437.325
SWISSCUBE 28 Aug 15:40:43 15:45:14 44° 287° (WNW) 15:49:45 437.505
KKS-1 28 Aug 15:50:14 15:53:22 19° 95° (E) 15:56:30 437.445
ITAMSAT 1 28 Aug 15:57:38 16:01:51 25° 264° (W) 16:06:04 435.822/435.867
BEESAT 28 Aug 15:57:59 16:02:12 33° 289° (WNW) 16:06:26 436.000
MOZHAYETS 4 28 Aug 16:02:15 16:06:29 36° 98° (E) 16:10:43
HORYU 2 28 Aug 16:06:59 16:09:53 17° 68° (ENE) 16:12:47 437.375
STARS 28 Aug 16:23:13 16:26:31 21° 96° (E) 16:29:47 437.465
Cosmos 2491 28 Aug 16:26:22 16:28:44 11° 77° (ENE) 16:31:06 435.465 / 435.565
SRMSAT 28 Aug 16:37:41 16:41:20 17° 191° (S) 16:44:58 437.500
ISS 28 Aug 16:40:11 16:42:38 20° 232° (SW) 16:45:04 145.825
AO-7 28 Aug 16:40:51 16:48:23 37° 260° (W) 16:55:59 29.400- 29.500
YUBILEINY 28 Aug 16:43:43 16:51:26 33° 75° (ENE) 16:59:02 435.215
ITUPSAT 1 28 Aug 16:49:01 16:49:56 10° 296° (WNW) 16:50:51 437.325
BRITE-PL 28 Aug 16:51:30 16:55:07 21° 67° (ENE) 16:58:56 437.365/2234.400
Cubesat XI-IV 28 Aug 16:56:47 16:58:38 12° 63° (ENE) 17:00:30 437.490
NOAA 15 28 Aug 17:04:10 17:07:46 19° 66° (ENE) 17:11:22 137.62
CUTE-I 28 Aug 17:06:58 17:10:01 16° 65° (ENE) 17:13:04 437.470
CUBESAT XI-V 28 Aug 17:25:04 17:29:22 35° 98° (E) 17:33:39 437.345
KKS-1 28 Aug 17:26:01 17:29:56 31° 289° (WNW) 17:33:50 437.445
LilacSat-2 28 Aug 17:30:52 17:33:34 19° 71° (ENE) 17:36:16 437.200
BEESAT 3 28 Aug 17:37:31 17:39:23 13° 50° (NE) 17:41:13 437.485
MOZHAYETS 4 28 Aug 17:40:19 17:43:20 18° 292° (WNW) 17:46:21
HORYU 2 28 Aug 17:42:02 17:46:07 35° 261° (W) 17:50:14 437.375
NOAA 18 28 Aug 17:53:40 17:58:50 42° 71° (ENE) 18:04:00 137.9125
GOMX 1 28 Aug 17:58:42 18:03:30 48° 73° (ENE) 18:08:37 467.674
STARS 28 Aug 17:59:06 18:02:49 27° 289° (WNW) 18:06:30 437.465
DOVE 4 28 Aug 18:00:53 18:04:52 23° 68° (ENE) 18:08:56 437.250
Cosmos 2504 28 Aug 18:12:19 18:19:01 40° 78° (ENE) 18:25:41 435.465 / 435.565
Cosmos 2491 28 Aug 18:15:21 18:24:02 80° 94° (E) 18:32:47 435.465 / 435.565
BRITE-PL 28 Aug 18:28:56 18:33:15 35° 264° (W) 18:37:57 437.365/2234.400
Cubesat XI-IV 28 Aug 18:32:40 18:38:00 75° 257° (WSW) 18:43:22 437.490
CINEMA 3 28 Aug 18:35:20 18:37:45 14° 66° (ENE) 18:40:08 145.822/145.860
YUBILEINY 28 Aug 18:40:08 18:48:16 45° 272° (W) 18:56:22 435.215
NOAA 15 28 Aug 18:42:09 18:47:08 44° 260° (W) 18:52:10 137.62
CUTE-I 28 Aug 18:44:18 18:49:32 57° 259° (W) 18:54:47 437.470
BEESAT 2 28 Aug 18:57:35 19:01:29 48° 59° (ENE) 19:05:21 435.950
CANX-2 28 Aug 19:00:27 19:03:13 17° 69° (ENE) 19:05:58 2200.000
CUBESAT XI-V 28 Aug 19:03:08 19:06:27 19° 291° (WNW) 19:09:46 437.345
LilacSat-2 28 Aug 19:04:35 19:07:40 23° 264° (W) 19:10:46 437.200
CUTE 1.7 + AOD 2 28 Aug 19:06:19 19:09:05 17° 69° (ENE) 19:11:51 437.475
STRAND 1 28 Aug 19:12:20 19:16:21 23° 96° (E) 19:20:22 437.568
BEESAT 3 28 Aug 19:13:28 19:17:17 47° 245° (WSW) 19:21:04 437.485
HO-68 28 Aug 19:27:33 19:34:28 52° 69° (ENE) 19:41:23 435.675
NOAA 18 28 Aug 19:35:28 19:39:35 21° 265° (W) 19:43:43 137.9125
DOVE 4 28 Aug 19:37:32 19:42:14 37° 263° (W) 19:47:06 437.250
GOMX 1 28 Aug 19:38:41 19:41:50 17° 269° (W) 19:45:07 467.674
Cosmos 2504 28 Aug 20:06:10 20:12:02 28° 274° (W) 20:17:56 435.465 / 435.565
FUNcube-1 28 Aug 20:07:28 20:09:11 12° 67° (ENE) 20:10:55 145.935
CINEMA 3 28 Aug 20:09:22 20:14:19 60° 260° (W) 20:19:15 145.822/145.860
SEEDS 28 Aug 20:10:32 20:14:39 74° 78° (ENE) 20:18:49 437.485
UWE-3 28 Aug 20:15:28 20:19:20 27° 72° (ENE) 20:23:07 435.000/436.395/437.385
Cosmos 2491 28 Aug 20:16:18 20:21:47 18° 292° (WNW) 20:27:17 435.465 / 435.565
AIST 1 28 Aug 20:17:17 20:21:34 52° 81° (E) 20:25:49
CUBEBUG 2 28 Aug 20:19:40 20:24:10 48° 75° (ENE) 20:28:36 437.445
ZACube-1 28 Aug 20:27:41 20:31:10 23° 71° (ENE) 20:34:38 437.345
PCSat 28 Aug 20:33:48 20:38:41 33° 58° (ENE) 20:43:31 145.827
CANX-2 28 Aug 20:35:05 20:38:48 30° 263° (W) 20:42:32 2200.000
BEESAT 2 28 Aug 20:38:01 20:38:49 10° 253° (WSW) 20:39:37 435.950
AAUSAT CUBESAT 2 28 Aug 20:38:11 20:42:16 84° 77° (ENE) 20:46:23 437.432
CUTE 1.7 + AOD 2 28 Aug 20:40:57 20:44:39 30° 263° (W) 20:48:23 437.475
COMPASS 1 28 Aug 20:47:34 20:51:36 55° 260° (W) 20:55:39 437.405
STRAND 1 28 Aug 20:50:58 20:55:31 33° 289° (WNW) 21:00:02 437.568
HUMSAT D 28 Aug 21:06:06 21:06:49 10° 67° (ENE) 21:07:31 437.325/437.525
HO-68 28 Aug 21:16:43 21:22:22 25° 264° (W) 21:28:04 435.675
AIST 2 28 Aug 21:19:11 21:23:21 66° 61° (ENE) 21:27:29 435.215
PRISM 28 Aug 21:22:57 21:27:06 63° 101° (E) 21:31:14 437.425
Oscar 11 28 Aug 21:31:30 21:35:45 60° 260° (W) 21:40:00 145.826/435.025
FUNcube-1 28 Aug 21:40:38 21:44:59 50° 260° (W) 21:49:15 145.935
UWE-3 28 Aug 21:52:05 21:55:42 23° 264° (W) 21:59:15 435.000/436.395/437.385
CUBEBUG 2 28 Aug 21:58:38 22:00:56 13° 267° (W) 22:03:13 437.445
ZACube-1 28 Aug 22:03:35 22:07:18 26° 263° (W) 22:10:59 437.345
DELFI C3 28 Aug 22:06:28 22:10:18 54° 260° (W) 22:14:10 145.870
TIGRISAT 28 Aug 22:07:27 22:10:02 16° 94° (E) 22:12:35 435.000
PCSat 28 Aug 22:17:22 22:21:54 28° 253° (WSW) 22:26:25 145.827
AUBIESAT-1 28 Aug 22:32:15 22:36:31 38° 68° (ENE) 22:40:48 437.475
UNISAT 6 28 Aug 22:35:21 22:39:19 37° 98° (E) 22:43:16 437.425
HUMSAT D 28 Aug 22:37:54 22:41:57 51° 260° (W) 22:45:59 437.325/437.525
M-CUBED/EXP-1 PRIME 28 Aug 22:38:45 22:43:18 56° 70° (ENE) 22:47:55 437.505
CUBEBUG 1 28 Aug 22:53:08 22:56:18 20° 69° (ENE) 22:59:29 437.445
O/OREOS (USA 219) 28 Aug 22:54:33 22:57:44 18° 61° (ENE) 23:00:54 437.305
GONETS M04 28 Aug 22:54:54 23:03:35 55° 80° (E) 23:12:10
VELOX 1 28 Aug 22:54:57 22:57:48 17° 68° (ENE) 23:00:39 145.980
SO-50 28 Aug 22:57:38 23:02:25 63° 116° (ESE) 23:07:13 436.795
Cosmos 2499 28 Aug 23:05:33 23:12:17 46° 79° (E) 23:19:08 435.465 / 435.565
SPROUT 28 Aug 23:07:21 23:07:47 10° 66° (ENE) 23:08:13 437.525
DX 1 28 Aug 23:07:56 23:10:32 16° 67° (ENE) 23:13:08 434.975-435.025
JAS-2 28 Aug 23:11:29 23:12:48 10° 90° (E) 23:14:08 435.910
ANTELSAT 28 Aug 23:12:02 23:16:19 75° 282° (WNW) 23:20:32 437.575/2403.000
DUCHIFAT 1 28 Aug 23:29:34 23:32:16 17° 95° (E) 23:34:56 145.980
QB50P2 28 Aug 23:33:39 23:37:02 23° 96° (E) 23:40:24 145.880/145.840
CUSAT 1 28 Aug 23:35:52 23:38:37 55° 281° (W) 23:41:57 437.405
POLYITAN 1 28 Aug 23:36:08 23:39:32 23° 96° (E) 23:42:54 437.675
ESTCUBE 1 28 Aug 23:39:40 23:44:08 73° 259° (W) 23:48:37 437.505/2401.250
PHONESAT 2.4 28 Aug 23:40:55 23:42:47 15° 143° (SE) 23:44:41 2401.200-2431.200
AISAT 28 Aug 23:42:16 23:46:39 65° 76° (ENE) 23:51:05 437.250
TIGRISAT 28 Aug 23:42:58 23:46:47 33° 288° (WNW) 23:50:35 435.000
NANOSAT C BR1 28 Aug 23:43:20 23:46:53 27° 97° (E) 23:50:26 145.865
UKube-1 28 Aug 23:44:23 23:48:11 31° 72° (ENE) 23:52:01 .
RS-15 29 Aug 00:02:43 00:12:51 39° 106° (ESE) 00:23:25 29.354- 29.394
50 SAT 29 Aug 00:07:47 00:11:17 55° 260° (W) 00:14:49 437.505
AUBIESAT-1 29 Aug 00:07:48 00:10:59 18° 261° (W) 00:14:13 437.475
UNISAT 6 29 Aug 00:13:19 00:15:41 15° 292° (WNW) 00:18:02 437.425
M-CUBED/EXP-1 PRIME 29 Aug 00:15:58 00:18:01 13° 263° (W) 00:20:04 437.505
BUGSAT 1 29 Aug 00:18:26 00:21:51 25° 97° (E) 00:25:13 437.445
QB50P1 29 Aug 00:27:42 00:31:54 76° 285° (WNW) 00:36:05 145.935-145.965
CUBEBUG 1 29 Aug 00:28:30 00:32:20 30° 263° (W) 00:36:13 437.445
VELOX 1 29 Aug 00:29:52 00:33:55 36° 261° (W) 00:38:03 145.980
O/OREOS (USA 219) 29 Aug 00:33:00 00:37:13 36° 256° (WSW) 00:41:24 437.305
POPSAT HIP 1 29 Aug 00:37:55 00:42:03 57° 285° (WNW) 00:46:09 437.405
SPROUT 29 Aug 00:38:56 00:43:10 58° 259° (W) 00:47:25 437.525
SO-50 29 Aug 00:40:31 00:43:18 15° 312° (NW) 00:46:05 436.795
DX 1 29 Aug 00:42:18 00:46:22 38° 261° (W) 00:50:27 434.975-435.025
DANDE 29 Aug 00:47:11 00:49:03 18° 284° (WNW) 00:51:00 436.750
JAS-2 29 Aug 00:51:16 00:58:21 77° 103° (ESE) 01:06:05 435.910
GONETS M04 29 Aug 00:52:47 00:59:46 27° 276° (W) 01:06:44
TISAT 1 29 Aug 00:53:06 00:57:00 37° 73° (ENE) 01:00:56 437.305
Cosmos 2499 29 Aug 00:59:32 01:04:56 24° 274° (W) 01:10:28 435.465 / 435.565
DUCHIFAT 1 29 Aug 01:04:17 01:07:58 30° 288° (WNW) 01:11:38 145.980
SWISSCUBE 29 Aug 01:08:38 01:10:16 12° 64° (ENE) 01:11:53 437.505
QB50P2 29 Aug 01:09:24 01:12:42 22° 290° (WNW) 01:15:58 145.880/145.840
POLYITAN 1 29 Aug 01:11:57 01:15:12 22° 290° (WNW) 01:18:26 437.675
PHONESAT 2.4 29 Aug 01:15:53 01:18:53 70° 336° (NNW) 01:21:52 2401.200-2431.200
Oscar 19 29 Aug 01:17:37 01:21:36 22° 95° (E) 01:25:32 437.125/150
NANOSAT C BR1 29 Aug 01:19:23 01:22:25 20° 291° (WNW) 01:25:25 145.865
UKube-1 29 Aug 01:21:19 01:24:14 18° 265° (W) 01:27:10 .
BEESAT 29 Aug 01:24:15 01:27:05 16° 66° (ENE) 01:29:55 436.000
BUGSAT 1 29 Aug 01:54:03 01:57:01 20° 291° (WNW) 01:59:58 437.445
ITUPSAT 1 29 Aug 02:10:39 02:15:14 50° 74° (ENE) 02:19:50 437.325
RS-15 29 Aug 02:13:36 02:24:46 55° 306° (NW) 02:36:37 29.354- 29.394
TISAT 1 29 Aug 02:30:26 02:32:44 14° 266° (W) 02:35:04 437.305
ITAMSAT 1 29 Aug 02:35:50 02:38:48 15° 94° (E) 02:41:45 435.822/435.867
JAS-2 29 Aug 02:38:13 02:42:44 19° 296° (WNW) 02:47:31 435.910
Gurwin Techsat 1B 29 Aug 02:38:52 02:44:09 66° 101° (E) 02:49:25 435.225
SWISSCUBE 29 Aug 02:42:47 02:47:28 62° 259° (W) 02:52:11 437.505
KKS-1 29 Aug 02:46:15 02:47:39 11° 65° (ENE) 02:49:04 437.445
PHONESAT 2.4 29 Aug 02:53:03 02:55:32 23° 352° (N) 02:58:00 2401.200-2431.200
Oscar 19 29 Aug 02:56:13 03:00:56 36° 289° (WNW) 03:05:38 437.125/150
AO-7 29 Aug 02:56:14 03:00:47 16° 93° (E) 03:05:17 29.400- 29.500
BEESAT 29 Aug 02:59:56 03:04:28 44° 260° (W) 03:09:01 436.000
MOZHAYETS 4 29 Aug 03:00:44 03:04:14 22° 70° (ENE) 03:07:44
STARS 29 Aug 03:17:36 03:19:18 12° 66° (ENE) 03:21:00 437.465
ITUPSAT 1 29 Aug 03:51:02 03:53:17 13° 267° (W) 03:55:33 437.325
ITAMSAT 1 29 Aug 04:13:29 04:18:29 51° 287° (WNW) 04:23:29 435.822/435.867
KKS-1 29 Aug 04:19:16 04:23:41 57° 259° (W) 04:28:06 437.445
Gurwin Techsat 1B 29 Aug 04:21:01 04:23:29 13° 296° (WNW) 04:25:58 435.225
CUBESAT XI-V 29 Aug 04:25:00 04:28:29 22° 69° (ENE) 04:32:00 437.345
PHONESAT 2.4 29 Aug 04:29:54 04:32:25 24° 9° (N) 04:34:56 2401.200-2431.200
